When you browse on this site, cookies collect data to enhance your experience and personalize the content and advertising you see.
Visit our Privacy Policy to learn more. By continuing to use the site, you agree to this use of cookies and data.
  • In Sweden
  • List of Countries
  • For 7 days
  • Water Temperature
  • Satellite Maps
  • Weather Map
  • Weather Widgets
  • user-avatar
    Login

    Hourly Weather Florkowizna

    Today, 20 February, Wednesday

    Time Temperature Precipitation Wind Pressure Humidity
    00:00 +3°C° 0 mm 5 mps 748 mmHg 86%
    01:00 +2°C° 0 mm 5 mps 748 mmHg 87%
    02:00 +2°C° 0 mm 5 mps 748 mmHg 88%
    03:00 +2°C° 0 mm 5 mps 748 mmHg 89%
    04:00 +1°C° 0 mm 5 mps 749 mmHg 90%
    05:00 +2°C° 0 mm 5 mps 749 mmHg 88%
    06:00 +2°C° 0 mm 6 mps 749 mmHg 85%
    07:00 +2°C° 0 mm 6 mps 749 mmHg 83%
    08:00 +2°C° 0.1 mm 6 mps 750 mmHg 80%
    09:00 +3°C° 0.1 mm 7 mps 750 mmHg 77%
    10:00 +3°C° 0.1 mm 7 mps 751 mmHg 73%
    11:00 +3°C° 0.1 mm 7 mps 751 mmHg 71%
    12:00 +4°C° 0.1 mm 7 mps 751 mmHg 69%
    13:00 +4°C° 0.1 mm 7 mps 751 mmHg 66%
    14:00 +4°C° 0 mm 7 mps 752 mmHg 68%
    15:00 +4°C° 0 mm 7 mps 752 mmHg 69%
    16:00 +4°C° 0 mm 6 mps 752 mmHg 70%
    17:00 +3°C° 0 mm 6 mps 752 mmHg 72%
    18:00 +3°C° 0 mm 5 mps 753 mmHg 74%
    19:00 +4°C° 0 mm 4 mps 753 mmHg 76%
    20:00 +4°C° 0 mm 4 mps 753 mmHg 79%
    21:00 +3°C° 0 mm 4 mps 754 mmHg 82%
    22:00 +3°C° 0 mm 3 mps 754 mmHg 84%
    23:00 +3°C° 0 mm 3 mps 754 mmHg 87%

    Tomorrow, 21 February, Thursday

    Time Temperature Precipitation Wind Pressure Humidity
    00:00 +2°C° 0 mm 3 mps 754 mmHg 90%
    01:00 +3°C° 0 mm 2 mps 754 mmHg 93%
    02:00 +3°C° 0.1 mm 2 mps 754 mmHg 94%
    03:00 +3°C° 0.1 mm 2 mps 754 mmHg 94%
    04:00 +3°C° 0.1 mm 2 mps 754 mmHg 95%
    05:00 +2°C° 0.2 mm 3 mps 754 mmHg 94%
    06:00 +3°C° 0.2 mm 4 mps 754 mmHg 93%
    07:00 +3°C° 0.2 mm 4 mps 753 mmHg 93%
    08:00 +2°C° 0.6 mm 5 mps 753 mmHg 90%
    09:00 +2°C° 0.6 mm 5 mps 753 mmHg 88%
    10:00 +3°C° 0.6 mm 6 mps 753 mmHg 86%
    11:00 +3°C° 1.1 mm 6 mps 752 mmHg 87%
    12:00 +3°C° 1.1 mm 6 mps 752 mmHg 88%
    13:00 +3°C° 1.1 mm 6 mps 752 mmHg 89%
    14:00 +3°C° 0.6 mm 6 mps 751 mmHg 88%
    15:00 +4°C° 0.6 mm 6 mps 751 mmHg 88%
    16:00 +4°C° 0.6 mm 6 mps 751 mmHg 88%
    17:00 +4°C° 0.3 mm 6 mps 751 mmHg 88%
    18:00 +4°C° 0.3 mm 6 mps 751 mmHg 89%
    19:00 +4°C° 0.3 mm 7 mps 751 mmHg 90%
    20:00 +4°C° 0.2 mm 6 mps 751 mmHg 90%
    21:00 +5°C° 0.2 mm 6 mps 751 mmHg 89%
    22:00 +5°C° 0.2 mm 6 mps 751 mmHg 89%
    23:00 +5°C° 0.5 mm 6 mps 752 mmHg 89%

    Day after tomorrow, 22 February, Friday

    Time Temperature Precipitation Wind Pressure Humidity
    00:00 +5°C° 0.5 mm 6 mps 752 mmHg 89%
    01:00 +4°C° 0.5 mm 7 mps 752 mmHg 89%
    02:00 +3°C° 0.3 mm 6 mps 753 mmHg 87%
    03:00 +1°C° 0.3 mm 6 mps 754 mmHg 85%
    04:00 -2°C° 0.3 mm 6 mps 754 mmHg 82%
    05:00 -3°C° 0 mm 6 mps 756 mmHg 78%
    06:00 -2°C° 0 mm 5 mps 757 mmHg 73%
    07:00 -4°C° 0 mm 5 mps 758 mmHg 68%
    08:00 -4°C° 0 mm 5 mps 760 mmHg 64%
    09:00 -4°C° 0 mm 5 mps 761 mmHg 61%
    10:00 -2°C° 0 mm 5 mps 762 mmHg 57%
    11:00 -2°C° 0 mm 5 mps 762 mmHg 54%
    12:00 -2°C° 0 mm 5 mps 763 mmHg 51%
    13:00 -2°C° 0 mm 5 mps 764 mmHg 48%
    14:00 -2°C° 0 mm 5 mps 764 mmHg 48%
    15:00 -2°C° 0 mm 4 mps 765 mmHg 49%
    16:00 -3°C° 0 mm 4 mps 765 mmHg 49%
    17:00 -3°C° 0 mm 4 mps 766 mmHg 52%
    18:00 -4°C° 0 mm 3 mps 766 mmHg 55%
    19:00 -4°C° 0 mm 3 mps 767 mmHg 58%
    20:00 -5°C° 0 mm 3 mps 767 mmHg 56%
    21:00 -5°C° 0 mm 3 mps 768 mmHg 54%
    22:00 -5°C° 0 mm 3 mps 768 mmHg 52%
    23:00 -4°C° 0 mm 2 mps 769 mmHg 50%

    23 February, Saturday

    Time Temperature Precipitation Wind Pressure Humidity
    00:00 -4°C° 0 mm 2 mps 769 mmHg 47%
    01:00 -4°C° 0 mm 2 mps 769 mmHg 45%
    02:00 -4°C° 0 mm 2 mps 769 mmHg 44%
    03:00 -2°C° 0 mm 1 mps 769 mmHg 43%
    04:00 -2°C° 0 mm 1 mps 769 mmHg 42%
    05:00 -3°C° 0 mm 0 mps 769 mmHg 42%
    06:00 -3°C° 0 mm 0 mps 769 mmHg 42%
    07:00 -3°C° 0 mm 0 mps 769 mmHg 43%
    08:00 -3°C° 0 mm 0 mps 769 mmHg 38%
    09:00 -1°C° 0 mm 1 mps 769 mmHg 34%
    10:00 0°C° 0 mm 1 mps 769 mmHg 29%
    11:00 +1°C° 0 mm 1 mps 769 mmHg 28%
    12:00 +1°C° 0 mm 2 mps 769 mmHg 27%
    13:00 +2°C° 0 mm 2 mps 769 mmHg 25%
    14:00 +2°C° 0 mm 2 mps 768 mmHg 28%
    15:00 +2°C° 0 mm 2 mps 768 mmHg 31%
    16:00 +2°C° 0 mm 2 mps 768 mmHg 34%
    17:00 +1°C° 0 mm 2 mps 768 mmHg 37%
    18:00 -1°C° 0 mm 2 mps 767 mmHg 40%
    19:00 -2°C° 0 mm 2 mps 767 mmHg 43%
    20:00 -2°C° 0 mm 2 mps 767 mmHg 44%
    21:00 -2°C° 0 mm 2 mps 767 mmHg 45%
    22:00 -2°C° 0 mm 2 mps 766 mmHg 46%
    23:00 -2°C° 0 mm 2 mps 766 mmHg 47%

    24 February, Sunday

    Time Temperature Precipitation Wind Pressure Humidity
    00:00 -2°C° 0 mm 2 mps 766 mmHg 48%
    01:00 -2°C° 0 mm 3 mps 766 mmHg 50%
    02:00 -2°C° 0 mm 3 mps 766 mmHg 50%
    03:00 -2°C° 0 mm 2 mps 765 mmHg 51%
    04:00 -3°C° 0 mm 2 mps 765 mmHg 52%
    05:00 -3°C° 0 mm 2 mps 765 mmHg 51%
    06:00 -3°C° 0 mm 2 mps 764 mmHg 51%
    07:00 -3°C° 0 mm 2 mps 764 mmHg 51%
    08:00 -1°C° 0 mm 3 mps 764 mmHg 47%
    09:00 0°C° 0 mm 3 mps 764 mmHg 44%
    10:00 +2°C° 0 mm 3 mps 764 mmHg 41%
    11:00 +3°C° 0 mm 3 mps 764 mmHg 41%
    12:00 +4°C° 0 mm 3 mps 764 mmHg 42%
    13:00 +5°C° 0 mm 3 mps 763 mmHg 43%
    14:00 +5°C° 0 mm 2 mps 763 mmHg 47%
    15:00 +5°C° 0 mm 2 mps 763 mmHg 51%
    16:00 +5°C° 0 mm 2 mps 763 mmHg 56%
    17:00 +5°C° 0 mm 1 mps 763 mmHg 59%
    18:00 +4°C° 0 mm 1 mps 762 mmHg 61%
    19:00 +3°C° 0 mm 1 mps 762 mmHg 64%
    20:00 +3°C° 0 mm 1 mps 762 mmHg 64%
    21:00 +2°C° 0 mm 2 mps 762 mmHg 64%
    22:00 +2°C° 0 mm 2 mps 762 mmHg 64%
    23:00 +2°C° 0 mm 2 mps 762 mmHg 65%

    25 February, Monday

    Time Temperature Precipitation Wind Pressure Humidity
    00:00 +1°C° 0 mm 2 mps 762 mmHg 66%
    01:00 +1°C° 0 mm 2 mps 762 mmHg 67%
    02:00 +1°C° 0 mm 2 mps 762 mmHg 69%
    03:00 +1°C° 0 mm 2 mps 761 mmHg 71%
    04:00 +1°C° 0 mm 2 mps 761 mmHg 74%
    05:00 +1°C° 0 mm 2 mps 761 mmHg 76%
    06:00 -1°C° 0 mm 3 mps 761 mmHg 78%
    07:00 -1°C° 0 mm 3 mps 762 mmHg 81%
    08:00 0°C° 0 mm 3 mps 762 mmHg 78%
    09:00 +2°C° 0 mm 3 mps 762 mmHg 75%
    10:00 +3°C° 0 mm 3 mps 762 mmHg 73%
    11:00 +4°C° 0 mm 3 mps 762 mmHg 74%
    12:00 +5°C° 0 mm 3 mps 762 mmHg 75%
    13:00 +7°C° 0 mm 3 mps 762 mmHg 76%
    14:00 +7°C° 0 mm 3 mps 762 mmHg 77%
    15:00 +7°C° 0 mm 3 mps 762 mmHg 78%
    16:00 +5°C° 0 mm 3 mps 762 mmHg 80%
    17:00 +5°C° 0 mm 3 mps 762 mmHg 83%
    18:00 +5°C° 0 mm 2 mps 762 mmHg 87%
    19:00 +4°C° 0 mm 2 mps 762 mmHg 91%
    20:00 +3°C° 0 mm 2 mps 762 mmHg 91%
    21:00 +3°C° 0 mm 2 mps 762 mmHg 91%
    22:00 +3°C° 0 mm 2 mps 762 mmHg 91%
    23:00 +3°C° 0 mm 2 mps 762 mmHg 91%
    Show more